GFSNW_700_temp_231.txt.gz
Temp
4 3 3 3 3 3 2 2 2 2 3 3 3 3 2 2 2 2 2 2 1 1 -0 0 -1 -1 -0 -1 -1 -2 -2 -3 -3 -1 -2 -2 -3 -4 -3 -2 -1 -3 -5 -2
3 2 2 2 1 2 2 2 2 1 2 2 2 1 1 1 1 1 1 1 0 0 -0 -1 -0 -1 -1 -2 -2 -3 -4 -4 -3 -0 -2 -3 -3 -4 -4 -4 -5 -4 -3 -2
3 2 2 2 1 1 1 1 1 1 1 1 1 1 0 0 0 0 0 0 -0 -1 -0 -1 -2 -2 -2 -3 -3 -4 -4 -5 -4 -2 -1 -3 -4 -5 -5 -5 -5 -4 -3 -3
2 1 1 1 1 1 1 1 1 0 1 1 0 1 0 0 -1 -0 -0 -0 -1 -1 -1 -2 -3 -2 -3 -4 -3 -4 -5 -6 -5 -5 -5 -5 -4 -6 -6 -6 -6 -6 -5 -5
2 1 1 1 1 1 0 0 0 0 1 1 0 0 -0 -0 -1 -1 -1 -1 -2 -2 -1 -3 -3 -4 -4 -6 -6 -5 -6 -6 -7 -7 -6 -7 -7 -6 -6 -7 -7 -7 -7 -7
1 1 1 1 1 0 0 0 0 -0 -0 -0 -0 -1 -1 -1 -1 -1 -1 -1 -3 -2 -1 -2 -2 -3 -4 -5 -6 -7 -9 -8 -8 -7 -7 -6 -5 -5 -7 -7 -7 -7 -8 -8
1 1 1 0 0 0 -0 -0 0 -0 -0 -0 -0 -0 -1 -1 -1 -1 -2 -2 -2 -2 -1 -2 -2 -2 -3 -4 -5 -6 -7 -9 -10 -9 -8 -6 -5 -5 -6 -7 -8 -7 -8 -8
1 1 0 -0 0 -0 -0 -0 -0 -0 -0 -1 -0 -1 -1 -1 -1 -2 -2 -2 -3 -3 -2 -2 -3 -5 -5 -4 -4 -6 -8 -9 -10 -9 -8 -6 -7 -6 -7 -8 -9 -8 -9 -9
0 0 0 0 0 0 -0 -0 -0 -0 -1 -1 -1 -1 -1 -1 -2 -2 -2 -3 -2 -2 -3 -3 -6 -5 -4 -6 -6 -6 -7 -9 -10 -10 -10 -6 -8 -8 -8 -9 -9 -9 -10 -10
-0 -0 -1 -0 -0 -0 -0 -0 -1 -1 -1 -2 -2 -2 -2 -2 -2 -3 -3 -3 -3 -3 -3 -5 -6 -6 -6 -7 -8 -7 -8 -10 -10 -10 -10 -8 -8 -9 -9 -10 -10 -10 -10 -10
-1 -1 -1 -1 -1 -1 -1 -1 -1 -1 -2 -2 -2 -2 -2 -2 -2 -2 -2 -3 -3 -4 -5 -6 -6 -7 -8 -8 -8 -7 -8 -9 -10 -10 -10 -8 -9 -9 -10 -9 -10 -10 -10 -10
-1 -1 -1 -1 -1 -1 -2 -2 -3 -2 -2 -2 -2 -2 -2 -2 -3 -3 -3 -4 -4 -5 -5 -6 -6 -7 -8 -9 -9 -8 -9 -9 -9 -10 -9 -8 -9 -10 -10 -11 -11 -11 -11 -11
-2 -2 -2 -1 -1 -2 -2 -2 -2 -2 -2 -2 -2 -2 -2 -3 -3 -4 -4 -4 -5 -6 -6 -7 -8 -8 -9 -10 -10 -10 -9 -9 -10 -10 -10 -9 -10 -10 -11 -11 -11 -11 -11 -11
-2 -2 -2 -2 -2 -2 -4 -3 -2 -2 -3 -2 -2 -2 -3 -3 -3 -4 -4 -5 -6 -6 -7 -8 -9 -10 -10 -11 -10 -10 -10 -10 -10 -11 -11 -11 -11 -11 -11 -11 -12 -12 -11 -11
-2 -2 -2 -2 -2 -4 -5 -5 -3 -3 -4 -3 -3 -3 -4 -4 -4 -5 -6 -6 -7 -7 -8 -9 -10 -11 -11 -12 -11 -11 -10 -10 -11 -12 -11 -12 -12 -12 -12 -12 -11 -11 -11 -11
-3 -3 -2 -2 -4 -4 -4 -4 -4 -4 -4 -5 -4 -4 -4 -5 -4 -5 -6 -7 -8 -9 -10 -11 -11 -10 -12 -13 -13 -12 -11 -11 -11 -11 -12 -12 -12 -12 -12 -12 -12 -11 -11 -12
-2 -3 -3 -4 -4 -4 -5 -5 -4 -4 -5 -5 -6 -5 -5 -4 -5 -6 -8 -8 -8 -10 -11 -11 -12 -11 -12 -13 -12 -12 -12 -12 -12 -12 -13 -13 -12 -12 -12 -12 -12 -12 -12 -13
-3 -3 -4 -4 -5 -5 -5 -5 -5 -6 -6 -7 -8 -6 -6 -6 -7 -7 -8 -8 -10 -11 -11 -11 -12 -12 -12 -13 -12 -12 -12 -12 -13 -13 -13 -13 -13 -13 -12 -12 -12 -12 -13 -13
-4 -5 -5 -6 -6 -7 -7 -7 -6 -6 -8 -8 -8 -7 -7 -7 -7 -8 -9 -10 -12 -12 -12 -13 -13 -14 -13 -12 -12 -13 -13 -13 -13 -13 -13 -13 -13 -13 -13 -13 -13 -13 -13 -13
-5 -6 -6 -7 -8 -8 -9 -8 -8 -9 -9 -9 -7 -7 -8 -8 -9 -10 -11 -12 -12 -13 -13 -13 -14 -15 -14 -13 -13 -14 -14 -14 -14 -14 -14 -14 -13 -13 -13 -13 -13 -14 -14 -14
-6 -6 -8 -9 -8 -9 -9 -9 -9 -9 -9 -8 -7 -8 -9 -10 -11 -11 -12 -13 -13 -13 -14 -13 -15 -15 -12 -13 -14 -14 -14 -14 -14 -14 -14 -13 -13 -13 -13 -14 -14 -14 -14 -14
-7 -9 -9 -9 -9 -9 -9 -9 -9 -9 -8 -8 -7 -9 -10 -12 -12 -13 -13 -13 -13 -14 -14 -14 -15 -13 -13 -14 -14 -14 -15 -14 -14 -14 -14 -14 -14 -14 -14 -14 -14 -15 -15 -14
-9 -9 -9 -9 -9 -9 -9 -9 -9 -8 -8 -8 -9 -10 -11 -12 -13 -13 -13 -14 -14 -14 -14 -15 -14 -14 -14 -14 -14 -15 -15 -15 -15 -14 -14 -14 -14 -15 -15 -15 -15 -15 -15 -15
-9 -8 -9 -9 -9 -9 -8 -8 -8 -9 -9 -10 -10 -11 -12 -13 -13 -13 -13 -14 -14 -14 -15 -15 -14 -14 -14 -15 -15 -15 -15 -15 -15 -15 -14 -15 -15 -15 -15 -15 -15 -15 -15 -15
-8 -9 -8 -9 -8 -8 -8 -9 -9 -10 -10 -11 -11 -12 -13 -14 -13 -14 -13 -13 -14 -15 -15 -14 -14 -14 -15 -15 -15 -15 -15 -15 -15 -15 -15 -16 -16 -16 -16 -15 -15 -15 -15 -15
-8 -9 -9 -9 -9 -9 -9 -9 -10 -11 -12 -12 -13 -14 -14 -14 -13 -13 -13 -14 -14 -14 -14 -14 -14 -15 -15 -15 -15 -16 -16 -16 -16 -16 -16 -16 -16 -16 -16 -16 -15 -15 -16 -16
-9 -9 -9 -10 -11 -11 -10 -11 -12 -13 -13 -14 -14 -14 -14 -14 -14 -14 -14 -14 -14 -14 -14 -15 -15 -15 -16 -16 -16 -16 -16 -16 -16 -16 -16 -16 -16 -16 -16 -16 -16 -16 -16 -16

GFSNW_700_temp_234.txt.gz
Temp
5 4 4 4 3 3 4 4 3 3 3 3 3 3 2 2 2 2 2 1 1 1 1 1 1 0 -0 -1 -1 -1 -2 -2 -3 -1 -2 -2 -2 -3 -3 -3 -2 -3 -3 -4
4 4 4 3 3 3 3 3 3 2 3 2 2 2 1 1 1 1 1 1 1 1 0 -0 0 -0 -1 -1 -1 -2 -3 -3 -4 -1 -2 -3 -4 -4 -3 -4 -4 -4 -5 -4
3 3 3 3 2 2 2 2 2 2 2 2 1 1 1 1 0 0 0 0 0 -0 -0 -1 -1 -2 -2 -2 -2 -3 -4 -4 -4 -3 -2 -3 -4 -4 -6 -6 -5 -5 -5 -4
3 3 3 2 2 2 1 1 1 1 1 1 1 0 0 -0 -1 -0 0 -0 -1 -1 -2 -2 -2 -2 -2 -3 -3 -4 -5 -5 -5 -5 -5 -5 -5 -5 -5 -6 -5 -6 -5 -6
2 2 2 1 1 1 1 0 0 0 0 0 0 -0 -1 -1 -1 -1 -1 -1 -1 -1 -1 -2 -1 -2 -3 -4 -5 -6 -7 -5 -6 -5 -5 -6 -6 -6 -6 -6 -7 -7 -7 -7
2 2 2 1 1 1 1 1 0 -0 -0 0 -1 -0 -0 -1 -1 -1 -1 -2 -2 -1 -1 -1 -0 -1 -2 -3 -5 -6 -8 -8 -8 -8 -7 -6 -5 -6 -6 -5 -7 -7 -8 -8
1 1 1 1 1 1 0 0 0 -0 -0 -0 -0 -1 -0 -1 -1 -1 -1 -2 -2 -2 -1 -1 -0 -1 -1 -2 -3 -5 -7 -8 -9 -9 -8 -7 -6 -6 -6 -6 -7 -7 -8 -8
1 1 0 -0 1 0 0 -0 -0 -0 -0 -0 -0 -1 -1 -1 -1 -1 -2 -2 -2 -3 -2 -1 -2 -2 -3 -3 -4 -5 -6 -8 -10 -9 -9 -7 -7 -6 -7 -7 -8 -8 -8 -9
0 0 0 0 0 -0 -0 -0 0 -0 -1 -1 -1 -1 -1 -2 -2 -2 -2 -2 -2 -2 -3 -3 -4 -4 -3 -5 -4 -5 -6 -8 -10 -10 -10 -8 -8 -7 -8 -9 -9 -9 -9 -9
0 -0 0 -0 -0 -1 -1 -1 -1 -1 -1 -2 -2 -2 -2 -2 -2 -2 -2 -2 -2 -3 -3 -4 -5 -5 -5 -6 -7 -6 -7 -8 -9 -10 -10 -9 -8 -8 -9 -9 -9 -9 -10 -10
-0 -0 -0 -1 -1 -1 -1 -1 -1 -2 -2 -2 -2 -2 -2 -2 -2 -2 -3 -3 -3 -4 -4 -5 -5 -6 -7 -7 -7 -7 -8 -9 -10 -10 -10 -9 -9 -9 -10 -10 -10 -10 -11 -11
-1 -1 -1 -1 -1 -1 -1 -1 -1 -2 -2 -2 -3 -2 -3 -2 -3 -3 -3 -4 -5 -4 -5 -6 -6 -6 -7 -7 -8 -8 -9 -9 -9 -9 -9 -9 -9 -10 -10 -10 -11 -11 -11 -11
-2 -2 -2 -2 -2 -2 -1 -2 -1 -2 -3 -3 -2 -3 -3 -3 -3 -4 -4 -4 -5 -6 -6 -6 -7 -7 -8 -9 -9 -9 -9 -10 -10 -10 -10 -10 -10 -11 -11 -11 -11 -11 -11 -12
-3 -3 -2 -2 -2 -2 -2 -2 -3 -3 -3 -4 -2 -3 -2 -3 -3 -4 -3 -4 -5 -6 -7 -7 -7 -8 -9 -9 -10 -10 -10 -10 -11 -11 -11 -11 -11 -11 -11 -12 -12 -12 -12 -12
-3 -2 -3 -3 -2 -2 -2 -2 -2 -3 -4 -4 -3 -4 -4 -4 -4 -4 -4 -4 -5 -7 -7 -7 -8 -9 -10 -10 -11 -10 -10 -10 -11 -11 -11 -12 -12 -12 -12 -13 -12 -12 -12 -11
-3 -3 -3 -2 -4 -4 -3 -2 -3 -4 -4 -5 -4 -4 -4 -4 -4 -4 -5 -5 -6 -7 -8 -9 -9 -10 -11 -11 -12 -11 -11 -11 -11 -11 -12 -12 -12 -13 -13 -12 -12 -12 -12 -12
-2 -2 -2 -3 -4 -4 -4 -5 -5 -5 -5 -5 -6 -5 -4 -4 -4 -4 -5 -7 -8 -9 -9 -10 -10 -11 -11 -12 -12 -11 -11 -11 -12 -12 -13 -13 -13 -13 -13 -13 -12 -12 -12 -13
-3 -4 -4 -4 -4 -5 -5 -6 -6 -6 -6 -6 -7 -6 -6 -5 -5 -6 -7 -8 -9 -9 -10 -10 -11 -12 -13 -13 -12 -11 -12 -12 -12 -13 -13 -13 -13 -13 -13 -13 -13 -13 -13 -13
-3 -4 -5 -5 -7 -6 -7 -7 -6 -6 -7 -8 -7 -7 -7 -6 -6 -7 -8 -9 -9 -11 -11 -12 -13 -13 -13 -12 -11 -12 -13 -13 -13 -13 -14 -14 -14 -13 -13 -13 -13 -13 -13 -13
-6 -6 -6 -6 -6 -8 -9 -8 -8 -8 -7 -8 -8 -7 -7 -8 -8 -9 -10 -11 -11 -12 -12 -12 -13 -13 -12 -13 -13 -14 -14 -14 -14 -14 -14 -14 -14 -14 -13 -13 -14 -14 -14 -14
-7 -6 -8 -8 -9 -8 -9 -8 -9 -8 -9 -8 -7 -7 -8 -9 -10 -11 -11 -12 -12 -12 -13 -13 -14 -14 -12 -13 -14 -14 -14 -15 -15 -15 -14 -14 -14 -14 -13 -14 -14 -15 -15 -14
-7 -9 -9 -9 -9 -9 -9 -9 -9 -9 -8 -7 -6 -7 -8 -10 -11 -12 -12 -12 -13 -13 -14 -14 -15 -13 -13 -13 -14 -14 -14 -15 -15 -15 -15 -14 -14 -14 -14 -14 -15 -15 -15 -15
-9 -10 -9 -9 -9 -9 -9 -9 -9 -8 -7 -7 -7 -8 -10 -11 -12 -13 -12 -13 -14 -14 -14 -15 -14 -13 -13 -14 -14 -14 -15 -15 -15 -15 -15 -15 -15 -15 -15 -15 -15 -15 -15 -15
-9 -9 -9 -9 -8 -9 -8 -8 -7 -7 -8 -8 -8 -9 -10 -11 -12 -13 -14 -14 -14 -14 -15 -14 -13 -13 -14 -14 -14 -15 -15 -15 -15 -15 -15 -15 -15 -15 -15 -15 -15 -15 -15 -15
-8 -9 -8 -8 -8 -8 -8 -9 -8 -8 -9 -9 -9 -10 -11 -12 -13 -13 -13 -13 -14 -14 -14 -13 -14 -14 -14 -14 -15 -15 -15 -15 -15 -15 -16 -16 -16 -16 -16 -16 -16 -16 -16 -16
-8 -8 -8 -8 -8 -8 -8 -8 -9 -9 -10 -10 -11 -12 -13 -13 -13 -14 -14 -14 -14 -13 -13 -14 -14 -14 -14 -15 -15 -15 -16 -16 -16 -16 -16 -16 -16 -16 -16 -16 -16 -16 -16 -16
-9 -8 -8 -8 -8 -9 -9 -9 -10 -11 -11 -12 -12 -13 -13 -14 -14 -14 -14 -14 -13 -14 -14 -14 -15 -15 -15 -16 -16 -16 -16 -16 -16 -16 -17 -17 -17 -17 -17 -17 -17 -16 -16 -16

GFSNW_700_temp_237.txt.gz
Temp
5 5 5 5 5 5 4 4 4 4 4 4 4 3 2 2 1 1 1 1 1 1 0 1 1 1 0 -0 -0 -2 -2 -3 -4 -1 -1 -2 -3 -3 -3 -4 -4 -5 -5 -5
5 5 4 4 4 4 4 4 3 3 3 3 2 1 1 1 1 1 1 1 0 0 -0 -0 -0 -0 0 0 -0 -2 -2 -3 -4 -2 -2 -3 -3 -4 -5 -5 -6 -6 -6 -5
4 4 4 4 4 3 3 3 3 3 2 2 2 1 1 1 0 0 -0 -0 -0 -1 -1 -0 -0 -1 -0 -0 -1 -1 -3 -4 -4 -4 -4 -4 -5 -5 -5 -6 -7 -6 -6 -6
4 3 3 3 3 3 2 2 2 2 2 2 1 0 0 0 -1 -1 -1 -1 -1 -1 -2 -1 -0 -0 -1 -1 -1 -2 -4 -5 -6 -5 -5 -5 -6 -5 -5 -6 -6 -7 -5 -7
3 3 3 3 3 2 2 2 1 1 1 1 1 0 0 -0 -1 -1 -0 -1 -1 -1 -2 -2 -1 -1 -1 -1 -2 -4 -6 -5 -6 -3 -4 -5 -5 -5 -5 -5 -6 -7 -7 -7
3 2 2 2 2 2 1 1 1 0 0 0 -0 0 -0 -1 -1 -1 -1 -1 -2 -2 -2 -2 -2 -2 -1 -1 -2 -4 -6 -7 -7 -5 -5 -5 -4 -4 -5 -6 -6 -7 -8 -7
2 2 2 2 1 1 1 1 0 -0 -0 0 -0 -0 -0 -1 -1 -1 -1 -2 -2 -2 -2 -2 -1 -1 -1 -2 -2 -3 -5 -7 -8 -7 -6 -8 -5 -5 -6 -7 -8 -7 -8 -8
1 1 1 1 0 0 0 0 0 -0 -0 -0 -0 -0 -1 -1 -1 -1 -1 -2 -3 -2 -1 -2 -1 -2 -2 -2 -3 -3 -5 -7 -8 -8 -9 -6 -6 -7 -7 -8 -8 -8 -9 -9
0 0 1 1 0 -0 0 -0 -0 -0 -1 -1 -1 -1 -1 -1 -2 -1 -1 -1 -1 -2 -3 -3 -4 -4 -4 -4 -4 -5 -5 -7 -9 -10 -10 -8 -7 -7 -8 -9 -9 -8 -9 -10
-0 0 0 0 -0 -0 -0 -0 -0 -1 -1 -1 -2 -2 -2 -2 -2 -2 -1 -2 -2 -3 -4 -4 -5 -5 -5 -5 -6 -5 -6 -7 -9 -9 -10 -8 -8 -9 -9 -9 -9 -10 -11 -11
-0 -0 -0 -0 -0 -1 -1 -1 -1 -1 -1 -2 -2 -2 -2 -2 -3 -2 -3 -4 -3 -4 -5 -5 -5 -6 -6 -6 -6 -6 -7 -8 -9 -10 -11 -10 -9 -9 -10 -10 -11 -11 -12 -11
-2 -2 -1 -1 -1 -1 -1 -2 -2 -2 -2 -2 -2 -2 -2 -2 -2 -2 -4 -4 -4 -5 -6 -6 -6 -6 -7 -7 -8 -8 -8 -8 -8 -9 -9 -9 -9 -10 -10 -10 -11 -12 -12 -12
-2 -2 -2 -2 -2 -2 -2 -2 -2 -2 -2 -2 -2 -2 -3 -3 -3 -3 -4 -3 -4 -5 -7 -7 -7 -7 -8 -8 -8 -9 -9 -9 -10 -10 -10 -10 -11 -11 -11 -11 -12 -12 -12 -12
-4 -3 -3 -3 -3 -2 -2 -2 -2 -3 -2 -2 -2 -3 -3 -3 -3 -3 -3 -4 -5 -6 -7 -8 -8 -8 -8 -8 -8 -9 -9 -10 -10 -11 -11 -11 -12 -12 -12 -12 -12 -12 -13 -13
-3 -4 -5 -4 -4 -4 -3 -3 -3 -3 -3 -3 -3 -3 -3 -3 -4 -4 -4 -4 -5 -5 -7 -8 -9 -9 -9 -9 -9 -9 -9 -9 -10 -11 -11 -12 -12 -12 -13 -13 -13 -13 -13 -12
-2 -3 -3 -3 -4 -4 -3 -3 -3 -3 -4 -4 -4 -3 -3 -4 -4 -4 -4 -5 -5 -6 -6 -8 -8 -9 -10 -10 -10 -10 -10 -11 -12 -12 -13 -13 -13 -13 -13 -13 -13 -13 -13 -13
-3 -3 -2 -3 -4 -4 -3 -4 -4 -5 -5 -4 -5 -4 -3 -3 -4 -4 -4 -5 -6 -6 -8 -8 -9 -10 -11 -11 -10 -10 -11 -12 -12 -13 -13 -13 -13 -13 -14 -14 -13 -13 -13 -13
-3 -3 -3 -4 -4 -4 -4 -5 -5 -5 -5 -6 -7 -6 -5 -5 -5 -5 -6 -6 -7 -7 -9 -9 -9 -11 -11 -11 -10 -10 -12 -12 -13 -13 -13 -13 -14 -14 -14 -14 -13 -13 -13 -13
-4 -4 -6 -5 -5 -5 -7 -6 -6 -6 -7 -8 -7 -6 -7 -6 -5 -6 -7 -7 -8 -9 -9 -10 -11 -11 -11 -10 -11 -12 -13 -14 -14 -14 -14 -14 -14 -14 -14 -14 -14 -14 -14 -14
-6 -6 -8 -7 -5 -6 -8 -8 -7 -8 -8 -8 -7 -7 -7 -7 -7 -8 -9 -9 -9 -10 -10 -11 -11 -11 -10 -11 -12 -13 -14 -14 -14 -15 -15 -15 -15 -15 -14 -14 -14 -14 -14 -14
-9 -9 -9 -7 -8 -8 -8 -8 -8 -8 -8 -7 -7 -6 -7 -8 -9 -10 -10 -11 -11 -11 -12 -12 -13 -12 -11 -12 -13 -14 -14 -14 -14 -15 -15 -15 -15 -14 -14 -14 -14 -15 -15 -15
-9 -8 -9 -10 -9 -9 -8 -8 -8 -8 -8 -7 -6 -6 -8 -9 -10 -11 -11 -11 -11 -12 -13 -13 -13 -12 -12 -13 -13 -14 -14 -14 -15 -15 -15 -15 -15 -15 -15 -15 -15 -15 -15 -15
-10 -9 -10 -9 -9 -9 -9 -8 -8 -8 -7 -6 -6 -7 -9 -10 -10 -11 -11 -12 -13 -14 -14 -13 -12 -13 -13 -13 -14 -14 -14 -15 -15 -15 -15 -15 -15 -16 -15 -15 -16 -16 -16 -16
-8 -9 -9 -9 -9 -9 -8 -8 -7 -7 -7 -7 -7 -8 -9 -10 -11 -12 -12 -13 -13 -14 -14 -13 -13 -13 -13 -13 -14 -14 -14 -15 -15 -16 -16 -16 -16 -16 -16 -16 -16 -16 -16 -16
-9 -9 -9 -8 -8 -8 -7 -8 -8 -8 -8 -8 -8 -9 -10 -11 -11 -12 -13 -13 -14 -14 -13 -13 -13 -13 -13 -14 -14 -14 -15 -15 -16 -16 -16 -16 -16 -16 -17 -17 -17 -17 -17 -16
-9 -9 -8 -8 -8 -8 -8 -7 -7 -8 -9 -9 -10 -11 -11 -12 -12 -13 -13 -13 -13 -13 -13 -13 -13 -14 -14 -14 -15 -15 -15 -16 -16 -16 -16 -17 -17 -17 -17 -17 -17 -17 -17 -16
-9 -9 -9 -8 -8 -8 -8 -8 -8 -8 -9 -10 -11 -11 -11 -13 -13 -14 -14 -13 -13 -13 -13 -14 -14 -15 -15 -15 -16 -16 -16 -16 -16 -17 -17 -17 -18 -18 -18 -18 -18 -17 -17 -17

GFSNW_700_temp_240.txt.gz
Temp
5 5 6 6 6 6 6 6 5 5 5 4 5 4 3 3 2 2 1 1 1 1 1 1 1 1 0 0 -0 -1 -1 -3 -1 0 -1 -1 -2 -4 -4 -4 -5 -5 -5 -4
5 5 5 5 5 5 5 5 4 4 4 4 3 3 3 2 2 1 1 1 0 0 -0 -0 0 0 0 0 -0 -1 -2 -3 -3 -1 -2 -3 -4 -4 -4 -5 -6 -6 -6 -5
4 4 5 5 5 5 5 5 4 4 3 3 3 2 1 1 1 1 0 0 -0 -1 -1 -1 -1 -1 0 0 -0 -1 -2 -2 -2 -2 -2 -4 -4 -4 -6 -6 -8 -7 -6 -6
4 4 4 4 4 4 4 4 3 3 3 2 2 2 1 1 0 0 -0 -0 -1 -0 -1 -1 -1 -1 -1 -1 -1 -2 -3 -4 -4 -2 -3 -4 -3 -3 -4 -6 -6 -8 -4 -7
3 4 4 4 4 4 3 3 3 2 2 1 1 1 1 0 0 -0 -0 -0 -1 -0 -1 -2 -2 -2 -2 -2 -2 -3 -5 -4 -5 -3 -2 -4 -4 -4 -5 -5 -6 -6 -7 -7
2 3 3 4 3 3 3 2 2 1 1 1 0 0 0 -1 -1 -1 -1 -1 -2 -2 -2 -2 -3 -2 -2 -3 -3 -3 -6 -6 -7 -5 -5 -5 -4 -4 -4 -6 -6 -7 -7 -7
1 1 2 3 3 2 2 2 1 0 -0 -0 -0 -0 -0 -0 -1 -1 -1 -2 -2 -2 -3 -2 -2 -2 -2 -2 -2 -3 -5 -6 -8 -7 -5 -8 -4 -5 -6 -7 -7 -7 -8 -9
0 1 1 1 2 2 1 1 0 -0 -1 -0 -0 -1 -0 -1 -1 -1 -1 -1 -2 -2 -3 -3 -3 -3 -3 -2 -2 -3 -4 -6 -7 -7 -9 -6 -5 -6 -7 -7 -8 -8 -9 -10
0 0 0 0 1 1 1 0 0 -0 -0 -0 -0 -1 -1 -1 -1 -2 -1 -1 -1 -2 -3 -4 -4 -3 -4 -4 -4 -4 -4 -5 -8 -9 -10 -9 -7 -7 -8 -8 -9 -9 -9 -10
0 -0 0 0 0 -0 -0 -0 -0 -0 -0 -1 -1 -1 -1 -2 -2 -2 -2 -2 -1 -2 -3 -5 -5 -5 -5 -5 -5 -5 -6 -6 -8 -8 -10 -8 -8 -8 -9 -10 -9 -10 -11 -11
-1 -1 -0 -0 -0 0 -0 -0 -1 -1 -1 -1 -1 -1 -2 -2 -2 -3 -3 -3 -2 -3 -4 -5 -5 -5 -5 -6 -6 -7 -7 -7 -8 -9 -11 -10 -8 -9 -10 -10 -11 -11 -12 -11
-1 -1 -1 -1 -1 -1 -1 -0 -1 -1 -1 -1 -1 -1 -2 -2 -3 -3 -3 -4 -4 -5 -5 -6 -6 -6 -6 -7 -7 -7 -8 -7 -8 -8 -8 -8 -9 -9 -10 -11 -12 -12 -12 -12
-2 -2 -2 -2 -2 -1 -1 -2 -2 -2 -2 -2 -2 -2 -2 -3 -3 -3 -4 -3 -4 -5 -6 -7 -7 -7 -8 -8 -7 -8 -8 -9 -9 -9 -9 -9 -10 -11 -11 -12 -12 -12 -12 -12
-2 -2 -2 -3 -3 -3 -3 -2 -2 -3 -2 -3 -2 -2 -3 -3 -3 -4 -4 -3 -4 -5 -7 -7 -7 -8 -8 -8 -8 -9 -9 -9 -10 -10 -10 -11 -11 -12 -12 -12 -13 -13 -13 -13
-3 -4 -3 -3 -3 -3 -4 -4 -4 -3 -3 -3 -3 -4 -3 -3 -3 -4 -4 -4 -4 -5 -7 -8 -8 -9 -9 -9 -9 -8 -8 -9 -10 -10 -11 -12 -12 -13 -13 -13 -13 -13 -13 -13
-4 -3 -3 -4 -5 -5 -5 -4 -4 -4 -5 -5 -4 -4 -2 -3 -3 -3 -3 -3 -4 -5 -6 -7 -8 -8 -9 -9 -8 -8 -9 -10 -11 -12 -12 -13 -13 -13 -13 -13 -13 -14 -14 -14
-3 -3 -3 -3 -5 -5 -5 -6 -5 -6 -6 -5 -4 -4 -3 -3 -3 -3 -3 -4 -5 -6 -7 -8 -8 -8 -10 -9 -9 -9 -10 -11 -12 -12 -13 -13 -13 -13 -13 -14 -14 -14 -14 -14
-4 -4 -4 -3 -4 -5 -5 -5 -5 -6 -6 -6 -6 -5 -5 -4 -4 -5 -5 -6 -6 -7 -8 -8 -9 -10 -10 -10 -9 -10 -10 -12 -12 -13 -13 -14 -14 -14 -14 -14 -14 -14 -14 -14
-5 -5 -6 -6 -6 -6 -7 -7 -7 -8 -7 -8 -7 -6 -6 -5 -5 -6 -6 -7 -8 -8 -9 -9 -10 -11 -10 -9 -10 -11 -12 -13 -13 -13 -14 -14 -15 -15 -15 -15 -15 -14 -14 -14
-7 -7 -7 -7 -6 -7 -8 -8 -7 -8 -8 -9 -7 -6 -7 -6 -6 -7 -9 -9 -9 -9 -10 -10 -11 -10 -9 -10 -11 -12 -12 -13 -13 -13 -14 -14 -15 -15 -15 -15 -15 -15 -15 -15
-8 -9 -9 -9 -8 -9 -9 -7 -8 -8 -8 -7 -6 -6 -7 -7 -8 -10 -10 -10 -10 -10 -11 -11 -12 -10 -10 -11 -11 -12 -12 -13 -13 -14 -14 -15 -15 -15 -15 -15 -15 -15 -15 -15
-9 -9 -9 -8 -9 -9 -8 -8 -8 -8 -8 -7 -7 -6 -6 -8 -9 -10 -11 -11 -11 -11 -13 -12 -12 -11 -11 -12 -12 -13 -13 -13 -14 -14 -15 -15 -15 -15 -15 -16 -16 -16 -16 -16
-10 -9 -9 -9 -9 -9 -9 -8 -7 -7 -7 -7 -6 -6 -8 -9 -10 -11 -10 -11 -12 -13 -13 -12 -11 -12 -12 -12 -12 -13 -13 -14 -14 -15 -16 -15 -16 -16 -16 -16 -16 -16 -16 -16
-11 -10 -9 -9 -9 -8 -8 -7 -7 -7 -7 -7 -6 -7 -8 -10 -10 -11 -11 -12 -12 -13 -13 -12 -11 -12 -12 -12 -13 -13 -14 -14 -15 -16 -15 -16 -16 -16 -16 -16 -17 -17 -17 -17
-11 -10 -9 -9 -8 -8 -7 -7 -7 -7 -8 -8 -8 -8 -9 -10 -11 -11 -11 -12 -13 -13 -12 -12 -12 -12 -13 -13 -13 -14 -14 -15 -16 -16 -16 -16 -16 -16 -17 -17 -17 -17 -18 -17
-10 -10 -9 -8 -8 -8 -8 -7 -7 -7 -8 -9 -9 -10 -10 -11 -10 -11 -11 -12 -12 -12 -12 -12 -13 -13 -13 -14 -14 -15 -15 -16 -16 -16 -16 -16 -17 -17 -17 -18 -18 -18 -18 -17
-11 -10 -10 -9 -8 -8 -8 -8 -8 -8 -8 -9 -10 -10 -10 -11 -11 -12 -12 -12 -11 -12 -13 -13 -13 -14 -14 -15 -15 -16 -16 -16 -16 -16 -16 -17 -17 -17 -18 -18 -18 -18 -18 -18